ECP45K CYEG-CYXY

Flight info

Callsign ECP45K
Flight time 2h 19m
Altitude 38000
Route MIPOT1/30 YZU DCT YXJ DCT GUDEN DCT DAPAL DAPAL3
Aircraft A319/M-SDE3FGHIRWY/LB1

Departure

Time 2026-04-22 21:27
Airport Edmonton International Airport (CYEG)

Arrival

Time 2026-04-22 23:46
Airport Whitehorse / Erik Nielsen International Airport (CYXY)
Time Latitude Longitude Altitude Speed Heading
2026-04-22 21:04 53.30494 -113.58293 2342 ft 0 kts 44°
2026-04-22 21:12 53.30493 -113.58293 2342 ft 0 kts 44°
2026-04-22 21:16 53.30493 -113.58294 2342 ft 0 kts 44°
2026-04-22 21:17 53.30484 -113.58308 2342 ft 2 kts 44°
2026-04-22 21:17 53.30473 -113.58327 2341 ft 2 kts 45°
2026-04-22 21:17 53.30463 -113.58344 2341 ft 2 kts 45°
2026-04-22 21:17 53.30452 -113.58362 2341 ft 2 kts 44°
2026-04-22 21:18 53.30443 -113.58381 2340 ft 2 kts 75°
2026-04-22 21:18 53.30442 -113.58406 2340 ft 2 kts 108°
2026-04-22 21:18 53.30447 -113.58421 2339 ft 0 kts 130°
2026-04-22 21:18 53.30452 -113.58431 2339 ft 0 kts 134°
2026-04-22 21:21 53.30442 -113.58413 2340 ft 5 kts 133°
2026-04-22 21:22 53.30407 -113.58354 2341 ft 9 kts 135°
2026-04-22 21:22 53.30357 -113.58282 2342 ft 9 kts 164°
2026-04-22 21:22 53.30292 -113.58343 2341 ft 12 kts 223°
2026-04-22 21:22 53.30223 -113.58404 2340 ft 11 kts 160°
2026-04-22 21:23 53.30156 -113.58304 2342 ft 15 kts 135°
2026-04-22 21:23 53.30062 -113.58148 2345 ft 19 kts 134°
2026-04-22 21:23 53.29971 -113.57996 2348 ft 18 kts 135°
2026-04-22 21:23 53.29868 -113.57822 2351 ft 23 kts 134°
2026-04-22 21:24 53.29741 -113.57611 2355 ft 27 kts 134°
2026-04-22 21:24 53.29602 -113.57378 2359 ft 27 kts 136°
2026-04-22 21:24 53.29468 -113.57156 2361 ft 26 kts 134°
2026-04-22 21:24 53.29346 -113.56950 2364 ft 24 kts 135°
2026-04-22 21:25 53.29229 -113.56755 2364 ft 23 kts 134°
2026-04-22 21:25 53.29113 -113.56561 2364 ft 23 kts 134°
2026-04-22 21:25 53.29007 -113.56384 2364 ft 19 kts 135°
2026-04-22 21:25 53.28916 -113.56253 2364 ft 16 kts 165°
2026-04-22 21:26 53.28800 -113.56245 2365 ft 16 kts 179°
2026-04-22 21:26 53.28713 -113.56329 2366 ft 11 kts 248°
2026-04-22 21:26 53.28752 -113.56432 2366 ft 12 kts 315°
2026-04-22 21:26 53.28940 -113.56745 2364 ft 75 kts 317°
2026-04-22 21:27 53.29476 -113.57645 2356 ft 141 kts 316°
2026-04-22 21:27 53.30226 -113.58939 2728 ft 166 kts 317°
2026-04-22 21:27 53.30994 -113.60373 3584 ft 167 kts 314°
2026-04-22 21:27 53.31689 -113.61776 4599 ft 158 kts 314°
2026-04-22 21:28 53.32364 -113.63184 5356 ft 161 kts 313°
2026-04-22 21:28 53.33084 -113.64700 6006 ft 173 kts 310°
2026-04-22 21:28 53.33790 -113.66417 6561 ft 190 kts 307°
2026-04-22 21:28 53.34557 -113.68341 7048 ft 212 kts 306°
2026-04-22 21:29 53.35403 -113.70499 7637 ft 230 kts 306°
2026-04-22 21:29 53.36311 -113.72826 8236 ft 248 kts 306°
2026-04-22 21:29 53.37276 -113.75281 8817 ft 266 kts 305°
2026-04-22 21:29 53.38314 -113.77943 9581 ft 277 kts 305°
2026-04-22 21:30 53.39364 -113.80638 10487 ft 281 kts 306°
2026-04-22 21:30 53.40446 -113.83408 11237 ft 289 kts 306°
2026-04-22 21:30 53.41553 -113.86233 12034 ft 295 kts 306°
2026-04-22 21:30 53.42667 -113.89078 12871 ft 297 kts 305°
2026-04-22 21:31 53.43808 -113.91985 13659 ft 301 kts 305°
2026-04-22 21:31 53.44958 -113.94920 14436 ft 304 kts 304°
2026-04-22 21:31 53.46122 -113.97887 15219 ft 309 kts 304°
2026-04-22 21:31 53.47296 -114.00885 15989 ft 312 kts 303°
2026-04-22 21:32 53.48480 -114.03926 16686 ft 317 kts 302°
2026-04-22 21:32 53.49685 -114.07020 17353 ft 323 kts 302°
2026-04-22 21:32 53.50921 -114.10195 18007 ft 328 kts 301°
2026-04-22 21:32 53.52176 -114.13416 18648 ft 333 kts 300°
2026-04-22 21:33 53.53457 -114.16713 19269 ft 339 kts 299°
2026-04-22 21:33 53.54747 -114.20039 19884 ft 344 kts 298°
2026-04-22 21:33 53.56056 -114.23436 20510 ft 348 kts 298°
2026-04-22 21:33 53.57372 -114.26866 21124 ft 352 kts 298°
2026-04-22 21:34 53.58697 -114.30306 21812 ft 353 kts 297°
2026-04-22 21:34 53.60021 -114.33738 22451 ft 354 kts 297°
2026-04-22 21:34 53.61365 -114.37228 23047 ft 358 kts 297°
2026-04-22 21:34 53.62711 -114.40726 23623 ft 361 kts 296°
2026-04-22 21:35 53.64075 -114.44280 24194 ft 364 kts 296°
2026-04-22 21:35 53.65438 -114.47836 24757 ft 367 kts 296°
2026-04-22 21:35 53.66831 -114.51477 25336 ft 370 kts 295°
2026-04-22 21:35 53.68219 -114.55112 25906 ft 373 kts 295°
2026-04-22 21:36 53.69615 -114.58773 26478 ft 376 kts 295°
2026-04-22 21:36 53.71036 -114.62505 27051 ft 378 kts 295°
2026-04-22 21:36 53.72466 -114.66267 27618 ft 380 kts 294°
2026-04-22 21:36 53.73883 -114.70000 28173 ft 381 kts 294°
2026-04-22 21:37 53.75302 -114.73744 28695 ft 384 kts 294°
2026-04-22 21:37 53.76745 -114.77560 29212 ft 386 kts 294°
2026-04-22 21:37 53.78182 -114.81363 29728 ft 388 kts 294°
2026-04-22 21:37 53.79635 -114.85214 30241 ft 390 kts 294°
2026-04-22 21:38 53.81098 -114.89096 30769 ft 392 kts 293°
2026-04-22 21:38 53.82549 -114.92950 31283 ft 394 kts 293°
2026-04-22 21:38 53.84029 -114.96889 31792 ft 396 kts 293°
2026-04-22 21:38 53.85491 -115.00788 32221 ft 398 kts 293°
2026-04-22 21:39 53.86982 -115.04771 32624 ft 400 kts 293°
2026-04-22 21:39 53.88460 -115.08727 33011 ft 402 kts 293°
2026-04-22 21:39 53.89963 -115.12756 33392 ft 405 kts 293°
2026-04-22 21:39 53.91460 -115.16775 33736 ft 407 kts 293°
2026-04-22 21:40 53.92959 -115.20806 34067 ft 409 kts 293°
2026-04-22 21:40 53.94482 -115.24907 34430 ft 409 kts 293°
2026-04-22 21:40 53.95981 -115.28942 34845 ft 408 kts 293°
2026-04-22 21:40 53.97492 -115.33022 35241 ft 406 kts 293°
2026-04-22 21:41 53.98975 -115.37035 35605 ft 405 kts 293°
2026-04-22 21:41 54.00468 -115.41085 35955 ft 403 kts 293°
2026-04-22 21:41 54.01939 -115.45079 36280 ft 402 kts 293°
2026-04-22 21:41 54.03421 -115.49116 36477 ft 402 kts 294°
2026-04-22 21:42 54.04883 -115.53108 36622 ft 403 kts 294°
2026-04-22 21:42 54.06366 -115.57157 36754 ft 404 kts 294°
2026-04-22 21:42 54.07853 -115.61230 36878 ft 405 kts 295°
2026-04-22 21:42 54.09329 -115.65290 37031 ft 406 kts 294°
2026-04-22 21:43 54.10827 -115.69379 37194 ft 408 kts 294°
2026-04-22 21:43 54.12307 -115.73450 37347 ft 409 kts 294°
2026-04-22 21:43 54.13824 -115.77557 37501 ft 411 kts 296°
2026-04-22 21:43 54.15462 -115.81544 37644 ft 416 kts 300°
2026-04-22 21:44 54.17223 -115.85433 37796 ft 418 kts 301°
2026-04-22 21:44 54.19027 -115.89326 37889 ft 419 kts 301°
2026-04-22 21:44 54.22632 -115.97121 37891 ft 419 kts 302°
2026-04-22 21:45 54.26232 -116.04915 37894 ft 419 kts 302°
2026-04-22 21:45 54.29811 -116.12701 37894 ft 419 kts 302°
2026-04-22 21:46 54.33398 -116.20544 37896 ft 419 kts 302°
2026-04-22 21:46 54.36973 -116.28386 37894 ft 419 kts 303°
2026-04-22 21:47 54.40549 -116.36235 37894 ft 419 kts 302°
2026-04-22 21:47 54.44115 -116.44106 37892 ft 419 kts 302°
2026-04-22 21:48 54.47680 -116.52004 37892 ft 420 kts 303°
2026-04-22 21:48 54.51239 -116.59910 37886 ft 420 kts 303°
2026-04-22 21:49 54.54799 -116.67826 37890 ft 421 kts 302°
2026-04-22 21:49 54.58347 -116.75791 37887 ft 421 kts 302°
2026-04-22 21:50 54.61917 -116.83781 37887 ft 422 kts 302°
2026-04-22 21:50 54.65474 -116.91768 37889 ft 422 kts 302°
2026-04-22 21:51 54.69049 -116.99830 37890 ft 423 kts 303°
2026-04-22 21:52 54.74365 -117.11873 37893 ft 423 kts 303°
2026-04-22 21:52 54.77930 -117.19987 37898 ft 423 kts 303°
2026-04-22 21:53 54.81462 -117.28046 37903 ft 424 kts 303°
2026-04-22 21:53 54.85019 -117.36192 37906 ft 424 kts 303°
2026-04-22 21:54 54.88557 -117.44323 37908 ft 424 kts 303°
2026-04-22 21:54 54.92086 -117.52460 37909 ft 425 kts 303°
2026-04-22 21:55 54.95664 -117.60738 37919 ft 425 kts 303°
2026-04-22 21:55 54.99208 -117.68964 37941 ft 425 kts 302°
2026-04-22 21:56 55.02728 -117.77162 37956 ft 425 kts 302°
2026-04-22 21:56 55.06242 -117.85372 37963 ft 425 kts 303°
2026-04-22 21:57 55.09744 -117.93581 37966 ft 425 kts 303°
2026-04-22 21:57 55.13274 -118.01884 37970 ft 425 kts 302°
2026-04-22 21:58 55.16760 -118.10115 37958 ft 425 kts 303°
2026-04-22 21:58 55.20267 -118.18424 37956 ft 425 kts 303°
2026-04-22 21:59 55.23772 -118.26751 37977 ft 426 kts 303°
2026-04-22 21:59 55.27246 -118.35032 37986 ft 426 kts 303°
2026-04-22 22:00 55.30730 -118.43365 37991 ft 425 kts 303°
2026-04-22 22:00 55.34208 -118.51712 37992 ft 425 kts 303°
2026-04-22 22:01 55.37683 -118.60084 37994 ft 425 kts 303°
2026-04-22 22:01 55.41164 -118.68497 37994 ft 425 kts 302°
2026-04-22 22:02 55.44627 -118.76893 37995 ft 425 kts 302°
2026-04-22 22:02 55.48059 -118.85243 37996 ft 425 kts 302°
2026-04-22 22:03 55.51507 -118.93662 37998 ft 425 kts 302°
2026-04-22 22:03 55.54961 -119.02123 38001 ft 424 kts 302°
2026-04-22 22:04 55.58392 -119.10559 38002 ft 424 kts 303°
2026-04-22 22:04 55.61807 -119.18983 38002 ft 424 kts 303°
2026-04-22 22:05 55.65228 -119.27452 38001 ft 424 kts 303°
2026-04-22 22:05 55.68628 -119.35898 38001 ft 424 kts 303°
2026-04-22 22:06 55.72022 -119.44359 38001 ft 423 kts 303°
2026-04-22 22:06 55.75430 -119.52884 38004 ft 423 kts 303°
2026-04-22 22:07 55.78819 -119.61391 38007 ft 423 kts 303°
2026-04-22 22:07 55.82180 -119.69859 38013 ft 423 kts 302°
2026-04-22 22:08 55.85566 -119.78417 38017 ft 423 kts 302°
2026-04-22 22:08 55.88931 -119.86953 38019 ft 423 kts 302°
2026-04-22 22:09 55.92294 -119.95517 38022 ft 423 kts 302°
2026-04-22 22:09 55.95658 -120.04108 38024 ft 423 kts 302°
2026-04-22 22:10 55.99001 -120.12678 38028 ft 423 kts 302°
2026-04-22 22:10 56.02366 -120.21335 38030 ft 423 kts 302°
2026-04-22 22:11 56.05711 -120.29969 38035 ft 423 kts 302°
2026-04-22 22:11 56.09051 -120.38622 38041 ft 423 kts 302°
2026-04-22 22:12 56.12375 -120.47266 38050 ft 423 kts 302°
2026-04-22 22:12 56.15727 -120.56016 38060 ft 423 kts 302°
2026-04-22 22:13 56.19049 -120.64720 38070 ft 423 kts 302°
2026-04-22 22:13 56.22359 -120.73431 38078 ft 423 kts 301°
2026-04-22 22:14 56.25653 -120.82132 38084 ft 423 kts 302°
2026-04-22 22:14 56.28961 -120.90875 38089 ft 423 kts 302°
2026-04-22 22:15 56.32328 -120.99529 38093 ft 423 kts 303°
2026-04-22 22:15 56.35676 -121.08137 38094 ft 423 kts 303°
2026-04-22 22:16 56.39046 -121.16855 38094 ft 422 kts 303°
2026-04-22 22:16 56.42370 -121.25491 38093 ft 422 kts 303°
2026-04-22 22:17 56.45702 -121.34187 38092 ft 421 kts 303°
2026-04-22 22:17 56.49020 -121.42878 38092 ft 421 kts 303°
2026-04-22 22:18 56.52323 -121.51560 38092 ft 421 kts 303°
2026-04-22 22:18 56.55632 -121.60287 38092 ft 421 kts 303°
2026-04-22 22:19 56.58908 -121.68960 38092 ft 420 kts 302°
2026-04-22 22:19 56.62198 -121.77702 38090 ft 420 kts 302°
2026-04-22 22:20 56.65476 -121.86445 38086 ft 420 kts 302°
2026-04-22 22:20 56.68730 -121.95155 38082 ft 420 kts 302°
2026-04-22 22:21 56.71994 -122.03931 38078 ft 420 kts 302°
2026-04-22 22:21 56.75251 -122.12717 38080 ft 420 kts 302°
2026-04-22 22:22 56.78514 -122.21552 38084 ft 419 kts 303°
2026-04-22 22:22 56.81748 -122.30341 38085 ft 419 kts 303°
2026-04-22 22:23 56.84976 -122.39139 38080 ft 419 kts 303°
2026-04-22 22:23 56.88201 -122.47961 38079 ft 419 kts 303°
2026-04-22 22:24 56.91423 -122.56807 38080 ft 419 kts 303°
2026-04-22 22:24 56.94652 -122.65705 38081 ft 419 kts 302°
2026-04-22 22:25 56.97860 -122.74580 38083 ft 420 kts 302°
2026-04-22 22:25 57.01065 -122.83476 38083 ft 419 kts 302°
2026-04-22 22:26 57.04269 -122.92405 38087 ft 419 kts 302°
2026-04-22 22:26 57.07471 -123.01361 38089 ft 419 kts 302°
2026-04-22 22:27 57.10645 -123.10271 38091 ft 418 kts 302°
2026-04-22 22:27 57.13819 -123.19215 38092 ft 418 kts 302°
2026-04-22 22:28 57.16974 -123.28136 38095 ft 418 kts 302°
2026-04-22 22:28 57.20153 -123.37159 38100 ft 418 kts 302°
2026-04-22 22:29 57.23289 -123.46094 38106 ft 418 kts 302°
2026-04-22 22:29 57.26443 -123.55109 38110 ft 418 kts 302°
2026-04-22 22:30 57.29568 -123.64081 38123 ft 418 kts 303°
2026-04-22 22:30 57.32716 -123.73151 38142 ft 418 kts 302°
2026-04-22 22:31 57.35843 -123.82196 38155 ft 418 kts 302°
2026-04-22 22:31 57.38957 -123.91236 38150 ft 418 kts 302°
2026-04-22 22:32 57.42067 -124.00301 38142 ft 418 kts 302°
2026-04-22 22:32 57.45169 -124.09376 38147 ft 418 kts 302°
2026-04-22 22:33 57.48270 -124.18483 38174 ft 418 kts 302°
2026-04-22 22:33 57.51365 -124.27605 38102 ft 417 kts 302°
2026-04-22 22:34 57.54439 -124.36696 38130 ft 417 kts 302°
2026-04-22 22:34 57.57500 -124.45783 38156 ft 417 kts 302°
2026-04-22 22:35 57.60570 -124.54936 38158 ft 417 kts 302°
2026-04-22 22:35 57.63631 -124.64098 38159 ft 417 kts 302°
2026-04-22 22:36 57.66659 -124.73199 38163 ft 417 kts 301°
2026-04-22 22:36 57.69698 -124.82367 38158 ft 416 kts 301°
2026-04-22 22:37 57.72733 -124.91557 38140 ft 415 kts 301°
2026-04-22 22:37 57.75738 -125.00694 38123 ft 415 kts 301°
2026-04-22 22:38 57.78756 -125.09905 38116 ft 414 kts 301°
2026-04-22 22:38 57.81741 -125.19048 38114 ft 414 kts 301°
2026-04-22 22:39 57.84713 -125.28188 38112 ft 413 kts 302°
2026-04-22 22:39 57.87692 -125.37389 38108 ft 413 kts 302°
2026-04-22 22:40 57.90655 -125.46572 38101 ft 412 kts 302°
2026-04-22 22:40 57.93603 -125.55743 38096 ft 412 kts 302°
2026-04-22 22:41 57.96541 -125.64923 38093 ft 411 kts 302°
2026-04-22 22:41 57.99476 -125.74127 38094 ft 410 kts 301°
2026-04-22 22:42 58.02391 -125.83302 38093 ft 409 kts 301°
2026-04-22 22:42 58.05286 -125.92455 38093 ft 409 kts 301°
2026-04-22 22:43 58.08184 -126.01646 38102 ft 409 kts 301°
2026-04-22 22:43 58.11068 -126.10834 38117 ft 409 kts 301°
2026-04-22 22:44 58.13953 -126.20065 38119 ft 409 kts 301°
2026-04-22 22:44 58.16840 -126.29336 38107 ft 409 kts 301°
2026-04-22 22:45 58.19712 -126.38596 38097 ft 410 kts 301°
2026-04-22 22:45 58.22583 -126.47887 38095 ft 410 kts 301°
2026-04-22 22:46 58.25441 -126.57175 38095 ft 410 kts 301°
2026-04-22 22:46 58.28305 -126.66524 38097 ft 410 kts 300°
2026-04-22 22:47 58.31155 -126.75858 38101 ft 410 kts 300°
2026-04-22 22:47 58.33988 -126.85173 38104 ft 410 kts 300°
2026-04-22 22:48 58.36839 -126.94590 38112 ft 410 kts 301°
2026-04-22 22:48 58.39648 -127.03909 38119 ft 410 kts 301°
2026-04-22 22:49 58.42471 -127.13311 38120 ft 410 kts 301°
2026-04-22 22:49 58.45289 -127.22715 38121 ft 409 kts 301°
2026-04-22 22:50 58.48097 -127.32130 38132 ft 409 kts 301°
2026-04-22 22:50 58.50894 -127.41570 38151 ft 409 kts 301°
2026-04-22 22:51 58.53673 -127.50964 38161 ft 409 kts 301°
2026-04-22 22:51 58.56446 -127.60368 38161 ft 409 kts 301°
2026-04-22 22:52 58.59238 -127.69895 38159 ft 409 kts 301°
2026-04-22 22:52 58.62007 -127.79366 38158 ft 408 kts 300°
2026-04-22 22:53 58.64759 -127.88833 38113 ft 408 kts 300°
2026-04-22 22:53 58.67512 -127.98360 38032 ft 408 kts 301°
2026-04-22 22:54 58.70276 -128.07933 37965 ft 408 kts 301°
2026-04-22 22:54 58.73012 -128.17438 37798 ft 407 kts 301°
2026-04-22 22:54 58.74376 -128.22203 37667 ft 407 kts 301°
2026-04-22 22:55 58.75721 -128.26915 37482 ft 405 kts 301°
2026-04-22 22:55 58.79750 -128.41086 37490 ft 402 kts 301°
2026-04-22 22:56 58.82415 -128.50488 37596 ft 400 kts 301°
2026-04-22 22:56 58.85068 -128.59892 37654 ft 399 kts 301°
2026-04-22 22:57 58.87701 -128.69244 37748 ft 399 kts 300°
2026-04-22 22:57 58.90343 -128.78702 37883 ft 400 kts 300°
2026-04-22 22:58 58.92954 -128.88113 37926 ft 400 kts 300°
2026-04-22 22:58 58.95579 -128.97539 37886 ft 400 kts 300°
2026-04-22 22:59 58.98191 -129.07008 37814 ft 399 kts 300°
2026-04-22 22:59 59.00794 -129.16458 37864 ft 399 kts 300°
2026-04-22 23:00 59.03390 -129.25937 38021 ft 398 kts 300°
2026-04-22 23:00 59.05973 -129.35411 38132 ft 398 kts 300°
2026-04-22 23:01 59.08551 -129.44913 38165 ft 399 kts 300°
2026-04-22 23:01 59.11111 -129.54373 38179 ft 399 kts 300°
2026-04-22 23:02 59.13679 -129.63882 38182 ft 398 kts 300°
2026-04-22 23:02 59.16228 -129.73381 38184 ft 398 kts 299°
2026-04-22 23:03 59.18775 -129.82918 38184 ft 397 kts 298°
2026-04-22 23:03 59.21301 -129.92458 38185 ft 397 kts 299°
2026-04-22 23:04 59.23793 -130.02087 38191 ft 398 kts 297°
2026-04-22 23:04 59.26121 -130.11838 38211 ft 397 kts 297°
2026-04-22 23:05 59.28426 -130.21552 38219 ft 396 kts 297°
2026-04-22 23:05 59.30706 -130.31255 38203 ft 395 kts 297°
2026-04-22 23:06 59.32995 -130.40997 38202 ft 395 kts 297°
2026-04-22 23:06 59.35262 -130.50729 38213 ft 394 kts 297°
2026-04-22 23:07 59.37526 -130.60481 38210 ft 394 kts 297°
2026-04-22 23:07 59.39786 -130.70236 38204 ft 394 kts 296°
2026-04-22 23:08 59.42027 -130.79982 38196 ft 394 kts 296°
2026-04-22 23:08 59.44282 -130.89793 38197 ft 394 kts 296°
2026-04-22 23:09 59.46511 -130.99556 38195 ft 393 kts 296°
2026-04-22 23:09 59.48719 -131.09312 38196 ft 393 kts 296°
2026-04-22 23:10 59.50935 -131.19093 38201 ft 392 kts 296°
2026-04-22 23:10 59.53135 -131.28909 38205 ft 392 kts 296°
2026-04-22 23:11 59.55317 -131.38680 38198 ft 392 kts 297°
2026-04-22 23:11 59.57508 -131.48438 38170 ft 391 kts 297°
2026-04-22 23:12 59.59689 -131.58240 38103 ft 391 kts 296°
2026-04-22 23:12 59.61835 -131.67995 38076 ft 390 kts 295°
2026-04-22 23:13 59.63991 -131.77812 38107 ft 389 kts 295°
2026-04-22 23:13 59.66124 -131.87555 38143 ft 389 kts 295°
2026-04-22 23:14 59.67194 -131.92447 38030 ft 389 kts 295°
2026-04-22 23:14 59.68245 -131.97334 37822 ft 387 kts 296°
2026-04-22 23:14 59.69313 -132.02225 37624 ft 384 kts 296°
2026-04-22 23:14 59.70342 -132.07028 37440 ft 380 kts 296°
2026-04-22 23:15 59.71390 -132.11852 37254 ft 377 kts 296°
2026-04-22 23:15 59.72411 -132.16556 37070 ft 373 kts 296°
2026-04-22 23:15 59.73417 -132.21248 36907 ft 371 kts 296°
2026-04-22 23:15 59.74411 -132.25900 36758 ft 369 kts 296°
2026-04-22 23:16 59.75412 -132.30577 36582 ft 367 kts 297°
2026-04-22 23:16 59.76400 -132.35217 36301 ft 366 kts 297°
2026-04-22 23:16 59.77388 -132.39859 35865 ft 367 kts 297°
2026-04-22 23:16 59.78381 -132.44528 35360 ft 370 kts 297°
2026-04-22 23:17 59.79374 -132.49203 34804 ft 374 kts 298°
2026-04-22 23:17 59.80373 -132.53925 34341 ft 372 kts 298°
2026-04-22 23:17 59.81369 -132.58646 33941 ft 368 kts 298°
2026-04-22 23:17 59.82336 -132.63249 33505 ft 364 kts 299°
2026-04-22 23:18 59.83324 -132.67963 33038 ft 359 kts 299°
2026-04-22 23:18 59.84276 -132.72508 32585 ft 355 kts 299°
2026-04-22 23:18 59.85205 -132.76956 32105 ft 350 kts 300°
2026-04-22 23:18 59.86131 -132.81389 31658 ft 342 kts 300°
2026-04-22 23:19 59.87021 -132.85666 31210 ft 335 kts 300°
2026-04-22 23:19 59.87896 -132.89848 30825 ft 326 kts 300°
2026-04-22 23:19 59.88742 -132.93957 30529 ft 315 kts 301°
2026-04-22 23:19 59.89573 -132.97914 30229 ft 304 kts 302°
2026-04-22 23:20 59.90449 -133.01646 29934 ft 299 kts 303°
2026-04-22 23:20 59.91411 -133.05309 29635 ft 296 kts 306°
2026-04-22 23:20 59.92435 -133.08800 29344 ft 293 kts 308°
2026-04-22 23:20 59.93524 -133.12167 29063 ft 290 kts 310°
2026-04-22 23:21 59.94697 -133.15445 28778 ft 288 kts 311°
2026-04-22 23:21 59.95921 -133.18558 28498 ft 287 kts 313°
2026-04-22 23:21 59.97194 -133.21545 28220 ft 285 kts 315°
2026-04-22 23:21 59.98543 -133.24446 27944 ft 284 kts 316°
2026-04-22 23:22 59.99893 -133.27266 27683 ft 283 kts 316°
2026-04-22 23:22 60.01256 -133.30109 27426 ft 283 kts 316°
2026-04-22 23:22 60.02608 -133.32927 27183 ft 282 kts 316°
2026-04-22 23:22 60.03969 -133.35767 26948 ft 281 kts 315°
2026-04-22 23:23 60.05307 -133.38560 26675 ft 279 kts 315°
2026-04-22 23:23 60.06636 -133.41339 26366 ft 278 kts 315°
2026-04-22 23:23 60.07961 -133.44113 26035 ft 276 kts 315°
2026-04-22 23:23 60.09290 -133.46901 25686 ft 275 kts 315°
2026-04-22 23:24 60.10606 -133.49664 25342 ft 273 kts 315°
2026-04-22 23:24 60.11897 -133.52379 25000 ft 271 kts 314°
2026-04-22 23:24 60.13192 -133.55103 24648 ft 270 kts 314°
2026-04-22 23:24 60.14478 -133.57809 24294 ft 268 kts 314°
2026-04-22 23:25 60.15755 -133.60500 23951 ft 266 kts 314°
2026-04-22 23:25 60.17020 -133.63168 23617 ft 264 kts 314°
2026-04-22 23:25 60.18288 -133.65846 23297 ft 262 kts 313°
2026-04-22 23:25 60.19566 -133.68558 22981 ft 261 kts 313°
2026-04-22 23:26 60.20801 -133.71175 22672 ft 259 kts 313°
2026-04-22 23:26 60.22037 -133.73798 22367 ft 258 kts 313°
2026-04-22 23:26 60.23270 -133.76415 22050 ft 257 kts 313°
2026-04-22 23:26 60.24489 -133.79005 21731 ft 255 kts 313°
2026-04-22 23:27 60.25692 -133.81563 21420 ft 253 kts 313°
2026-04-22 23:27 60.26886 -133.84106 21114 ft 251 kts 313°
2026-04-22 23:27 60.28079 -133.86659 20819 ft 249 kts 313°
2026-04-22 23:27 60.29266 -133.89210 20533 ft 248 kts 313°
2026-04-22 23:28 60.30431 -133.91696 20243 ft 246 kts 313°
2026-04-22 23:28 60.31608 -133.94200 19947 ft 245 kts 313°
2026-04-22 23:28 60.32758 -133.96670 19656 ft 243 kts 313°
2026-04-22 23:28 60.33915 -133.99158 19359 ft 242 kts 313°
2026-04-22 23:29 60.35062 -134.01613 19068 ft 240 kts 313°
2026-04-22 23:29 60.36205 -134.04065 18779 ft 239 kts 313°
2026-04-22 23:29 60.37334 -134.06505 18491 ft 238 kts 313°
2026-04-22 23:29 60.38461 -134.08931 18199 ft 237 kts 313°
2026-04-22 23:30 60.39581 -134.11336 17914 ft 234 kts 313°
2026-04-22 23:30 60.40680 -134.13719 17634 ft 232 kts 313°
2026-04-22 23:30 60.41770 -134.16075 17334 ft 230 kts 313°
2026-04-22 23:30 60.42857 -134.18425 17015 ft 230 kts 313°
2026-04-22 23:31 60.43951 -134.20796 16673 ft 230 kts 313°
2026-04-22 23:31 60.45044 -134.23158 16327 ft 230 kts 313°
2026-04-22 23:31 60.46120 -134.25502 15981 ft 231 kts 313°
2026-04-22 23:31 60.47224 -134.27899 15617 ft 232 kts 313°
2026-04-22 23:32 60.48307 -134.30252 15263 ft 233 kts 313°
2026-04-22 23:32 60.49412 -134.32657 14892 ft 234 kts 313°
2026-04-22 23:32 60.50527 -134.35075 14545 ft 235 kts 313°
2026-04-22 23:32 60.51642 -134.37505 14199 ft 237 kts 313°
2026-04-22 23:33 60.52750 -134.39943 13855 ft 238 kts 313°
2026-04-22 23:33 60.53871 -134.42403 13498 ft 239 kts 314°
2026-04-22 23:33 60.55015 -134.44888 13124 ft 241 kts 314°
2026-04-22 23:33 60.56162 -134.47372 12747 ft 241 kts 313°
2026-04-22 23:34 60.57310 -134.49854 12375 ft 243 kts 313°
2026-04-22 23:34 60.58456 -134.52364 12011 ft 242 kts 312°
2026-04-22 23:34 60.59586 -134.54897 11645 ft 243 kts 313°
2026-04-22 23:34 60.60726 -134.57408 11289 ft 242 kts 313°
2026-04-22 23:35 60.61866 -134.59926 10937 ft 243 kts 312°
2026-04-22 23:35 60.62999 -134.62444 10604 ft 243 kts 313°
2026-04-22 23:35 60.64140 -134.64957 10258 ft 244 kts 313°
2026-04-22 23:35 60.65300 -134.67497 9898 ft 245 kts 311°
2026-04-22 23:36 60.66455 -134.70029 9541 ft 246 kts 310°
2026-04-22 23:36 60.67601 -134.72592 9195 ft 247 kts 311°
2026-04-22 23:36 60.68763 -134.75172 8843 ft 248 kts 310°
2026-04-22 23:36 60.69938 -134.77751 8538 ft 246 kts 309°
2026-04-22 23:37 60.71059 -134.80263 8450 ft 234 kts 309°
2026-04-22 23:37 60.72110 -134.82629 8371 ft 223 kts 310°
2026-04-22 23:37 60.73134 -134.84932 8308 ft 216 kts 311°
2026-04-22 23:37 60.74224 -134.87047 8246 ft 216 kts 323°
2026-04-22 23:38 60.75589 -134.88531 8250 ft 230 kts 335°
2026-04-22 23:38 60.77076 -134.89720 8264 ft 233 kts 338°
2026-04-22 23:38 60.78615 -134.90865 8274 ft 234 kts 339°
2026-04-22 23:38 60.80145 -134.91983 8277 ft 235 kts 336°
2026-04-22 23:39 60.81660 -134.93143 8288 ft 234 kts 337°
2026-04-22 23:39 60.83192 -134.94334 8067 ft 235 kts 337°
2026-04-22 23:39 60.84703 -134.95480 8000 ft 232 kts 337°
2026-04-22 23:39 60.86215 -134.96669 8001 ft 232 kts 337°
2026-04-22 23:40 60.87723 -134.97852 7992 ft 233 kts 338°
2026-04-22 23:40 60.89240 -134.99034 7991 ft 233 kts 335°
2026-04-22 23:40 60.90464 -135.01000 7979 ft 227 kts 299°
2026-04-22 23:40 60.90840 -135.04019 7928 ft 218 kts 263°
2026-04-22 23:41 60.90386 -135.06963 7585 ft 219 kts 245°
2026-04-22 23:41 60.89788 -135.09796 7371 ft 215 kts 248°
2026-04-22 23:41 60.89259 -135.12671 7147 ft 212 kts 249°
2026-04-22 23:41 60.88734 -135.15449 6930 ft 208 kts 250°
2026-04-22 23:42 60.88132 -135.18079 6693 ft 204 kts 232°
2026-04-22 23:42 60.86932 -135.19530 6399 ft 206 kts 187°
2026-04-22 23:42 60.85541 -135.18933 6183 ft 205 kts 156°
2026-04-22 23:42 60.84268 -135.17627 5945 ft 204 kts 154°
2026-04-22 23:43 60.83205 -135.16545 5722 ft 199 kts 156°
2026-04-22 23:43 60.82564 -135.15930 5499 ft 197 kts 158°
2026-04-22 23:44 60.81326 -135.14821 5051 ft 196 kts 160°
2026-04-22 23:44 60.80062 -135.13806 4462 ft 199 kts 160°
2026-04-22 23:44 60.78812 -135.12813 4087 ft 183 kts 160°
2026-04-22 23:44 60.77713 -135.11957 3985 ft 155 kts 161°
2026-04-22 23:45 60.76778 -135.11204 3819 ft 138 kts 158°
2026-04-22 23:45 60.75922 -135.10452 3490 ft 133 kts 162°
2026-04-22 23:45 60.75058 -135.09842 3159 ft 129 kts 163°
2026-04-22 23:45 60.74234 -135.09241 2882 ft 124 kts 161°
2026-04-22 23:46 60.73426 -135.08611 2652 ft 126 kts 159°
2026-04-22 23:46 60.72626 -135.08003 2375 ft 123 kts 160°
2026-04-22 23:46 60.71819 -135.07393 2239 ft 117 kts 160°
2026-04-22 23:46 60.71266 -135.06976 2278 ft 42 kts 158°
2026-04-22 23:47 60.71040 -135.06796 2297 ft 31 kts 158°
2026-04-22 23:47 60.70920 -135.06686 2304 ft 9 kts 130°
2026-04-22 23:47 60.70894 -135.06686 2308 ft 6 kts 329°
2026-04-22 23:47 60.70970 -135.06738 2302 ft 18 kts 335°
2026-04-22 23:48 60.71123 -135.06862 2290 ft 26 kts 339°
2026-04-22 23:48 60.71256 -135.06969 2280 ft 12 kts 337°
2026-04-22 23:48 60.71286 -135.07063 2281 ft 2 kts 217°
2026-04-22 23:48 60.71269 -135.07082 2283 ft 12 kts 208°
2026-04-22 23:49 60.71236 -135.07143 2289 ft 10 kts 252°
2026-04-22 23:49 60.71261 -135.07251 2293 ft 9 kts 331°
2026-04-22 23:49 60.71348 -135.07314 2288 ft 17 kts 339°
2026-04-22 23:49 60.71424 -135.07407 2284 ft 10 kts 294°
2026-04-22 23:50 60.71426 -135.07466 2286 ft 2 kts 271°
2026-04-22 23:50 60.71426 -135.07480 2287 ft 0 kts 272°